Terminal Aerodrome Forecast
Issued by NWS

Home | Current Version | Previous Version | Text Only | Print | Product List | Glossary On
Versions: 1 2 3 4 5 6 7 8 9 10 11 12
000
FTAK31 PAJN 032300
TAFAWG
TAF
PAWG 032325Z 0400/0424 31008KT P6SM FEW050 SCT060
     FM040400 27005KT P6SM SCT050
     FM040900 VRB03KT P6SM SCT025
     FM041700 31006KT P6SM SCT220
      AMD LTD TO CLD VIS AND WIND 0406/0415=

USA.gov is the U.S. government's official web portal to all federal, state and local government web resources and services.